This is the latest recevied weather packets stored in our database for station/object OH5GWF-1. If no packets are shown the sender has not sent any weather packets the latest 10 day(s).
| Time | Temp. | Humidity | Pressure | Rain* | Wind** | Luminosity | Snow |
|---|---|---|---|---|---|---|---|
| 1777192029 | 2.22° C | 70% | 998.8 hPa | 0.51 mm | - | - | - |
| 1777191606 | 1.67° C | 70% | 998.7 hPa | 0.51 mm | - | - | - |
| 1777191183 | 2.22° C | 69% | 998.5 hPa | 0.51 mm | - | - | - |
| 1777190773 | 2.78° C | 72% | 998.5 hPa | 0.51 mm | - | - | - |
| 1777190350 | 2.22° C | 72% | 998.4 hPa | 0.51 mm | - | - | - |
| 1777189928 | 2.22° C | 73% | 998.4 hPa | 0.51 mm | - | - | - |
| 1777189505 | 2.22° C | 76% | 998.3 hPa | 1.02 mm | - | - | - |
| 1777189083 | 2.22° C | 75% | 998.2 hPa | 0.51 mm | - | - | - |
| 1777188672 | 2.78° C | 75% | 998.2 hPa | 0.51 mm | - | - | - |
| 1777188251 | 2.78° C | 77% | 997.8 hPa | 0.51 mm | - | - | - |
| 1777187830 | 2.22° C | 78% | 997.7 hPa | 0.51 mm | - | - | - |
| 1777187408 | 1.67° C | 79% | 997.7 hPa | 0.51 mm | - | - | - |
| 1777186987 | 1.67° C | 80% | 997.5 hPa | 0.51 mm | - | - | - |
| 1777186565 | 1.67° C | 80% | 997.6 hPa | 0.51 mm | - | - | - |
| 1777186154 | 1.67° C | 83% | 997.5 hPa | 0.51 mm | - | - | - |
| 1777185732 | 1.11° C | 82% | 997.3 hPa | 0 mm | - | - | - |
| 1777185309 | 0.56° C | 85% | 997.2 hPa | 0 mm | - | - | - |
| 1777184886 | 0° C | 86% | 997.2 hPa | 0 mm | - | - | - |
| 1777184465 | 0° C | 87% | 996.9 hPa | 0 mm | - | - | - |
| 1777184043 | -0.56° C | 87% | 996.7 hPa | 0 mm | - | - | - |
| 1777183633 | -0.56° C | 87% | 996.7 hPa | 0 mm | - | - | - |
| 1777183210 | -0.56° C | 89% | 996.6 hPa | 0 mm | - | - | - |
| 1777182787 | -1.11° C | 89% | 996.5 hPa | 0 mm | - | - | - |
| 1777182365 | -0.56° C | 90% | 996.3 hPa | 0 mm | - | - | - |
| 1777181954 | -1.11° C | 90% | 996.2 hPa | 0 mm | - | - | - |
* Rain latest hour (hover to see other rain measurements)
** Current wind speed in m/s (hover to see current wind gust speed)